This is the latest recevied weather packets stored in our database for station/object RN1M-13. If no packets are shown the sender has not sent any weather packets the latest 10 day(s).
| Time | Temp. | Humidity | Pressure | Rain* | Wind** | Luminosity | Snow |
|---|---|---|---|---|---|---|---|
| 1777991332 | 12.22° C | 78% | 1003.3 hPa | - | - | - | - |
| 1777990432 | 12.78° C | 76% | 1003.1 hPa | - | - | - | - |
| 1777988639 | 12.22° C | 100% | 1002.9 hPa | - | - | - | - |
| 1777987739 | 12.22° C | 100% | 1002.7 hPa | - | - | - | - |
| 1777986839 | 11.67° C | 100% | 1002.4 hPa | - | - | - | - |
| 1777985939 | 11.11° C | 100% | 1002.4 hPa | - | - | - | - |
| 1777985039 | 11.11° C | 100% | 1002.3 hPa | - | - | - | - |
| 1777984139 | 11.67° C | 100% | 1002.4 hPa | - | - | - | - |
| 1777983239 | 11.11° C | 100% | 1002.5 hPa | - | - | - | - |
| 1777982339 | 15.56° C | 88% | 1002.3 hPa | - | - | - | - |
| 1777981439 | 15.56° C | 59% | 1002.2 hPa | - | - | - | - |
| 1777980545 | 17.22° C | 48% | 1001.9 hPa | - | - | - | - |
| 1777979639 | 17.78° C | 47% | 1001.7 hPa | - | - | - | - |
| 1777978741 | 17.78° C | 55% | 1001.7 hPa | - | - | - | - |
| 1777977847 | 18.89° C | 79% | 1001.9 hPa | - | - | - | - |
| 1777975147 | 17.22° C | 100% | 1001.8 hPa | - | - | - | - |
| 1777974247 | 18.33° C | 100% | 1001.8 hPa | - | - | - | - |
| 1777973347 | 17.22° C | 100% | 1001.9 hPa | - | - | - | - |
| 1777972447 | 16.67° C | 100% | 1002 hPa | - | - | - | - |
| 1777971547 | 16.67° C | 100% | 1002 hPa | - | - | - | - |
| 1777970647 | 16.11° C | 100% | 1002.1 hPa | - | - | - | - |
| 1777969747 | 15° C | 100% | 1002 hPa | - | - | - | - |
| 1777968847 | 15.56° C | 100% | 1001.9 hPa | - | - | - | - |
| 1777967949 | 15.56° C | 100% | 1001.7 hPa | - | - | - | - |
| 1777967054 | 15.56° C | 100% | 1001.1 hPa | - | - | - | - |
* Rain since midnight (hover to see other rain measurements)
** Current wind speed in m/s (hover to see current wind gust speed)